Temp
78 90 92 88 72 71 65 63 71 64 63 69 70 68 67 63 62 56 65 67 67 67 68 69 65 65 65 65 65 65 65 65 65 65 65 65 65 65 65 65 65 65 66 66 66 66 66 65 65
90 88 90 83 67 63 66 69 62 67 68 68 66 65 64 61 63 60 63 66 67 67 68 67 63 64 64 64 64 64 64 64 64 64 64 64 64 64 64 63 63 64 64 65 65 65 65 64 64
85 88 80 73 68 63 64 67 69 67 66 66 64 65 64 61 64 65 66 66 67 67 67 65 63 63 63 63 63 63 63 63 63 63 63 62 62 62 62 62 62 62 63 63 63 63 63 63 62
86 85 81 68 65 67 66 68 70 63 63 67 67 62 63 66 66 68 67 67 66 66 67 63 61 62 62 62 62 61 61 61 61 61 61 60 60 60 60 60 60 61 61 61 61 61 61 61 61
86 83 70 65 65 65 65 71 68 63 65 65 65 63 62 62 67 67 66 67 66 65 66 64 59 60 60 60 60 60 60 60 59 59 59 58 58 58 58 58 58 59 59 60 60 60 60 59 59
78 80 66 64 65 63 65 70 68 67 68 66 62 63 63 65 64 65 67 66 67 64 63 63 56 57 57 57 57 58 58 58 57 57 57 56 56 56 56 56 57 58 58 58 58 58 58 58 58
75 72 67 66 65 60 64 70 66 68 66 64 68 62 63 60 65 65 65 66 65 63 62 62 62 57 54 54 54 55 55 55 55 55 54 54 55 55 55 55 55 56 56 56 56 57 57 57 57
78 74 64 67 64 62 67 66 70 68 67 68 69 63 62 63 65 64 64 64 62 62 62 61 61 61 60 60 51 52 53 53 53 54 52 53 55 54 54 54 53 54 55 55 55 55 56 56 56
77 68 65 66 63 66 68 63 66 69 66 64 66 65 64 67 63 60 59 60 59 60 61 61 60 60 60 60 57 56 55 54 54 54 53 54 54 54 54 53 53 54 53 54 55 55 55 55 55
73 67 69 70 72 68 66 66 63 61 62 61 61 63 62 63 59 57 58 57 58 58 59 60 60 59 59 62 59 58 58 57 56 54 52 53 53 53 53 53 53 53 53 53 54 54 54 54 54
71 67 69 67 68 68 66 65 68 61 62 66 63 63 61 59 58 58 60 62 60 60 59 58 59 58 57 58 58 58 58 56 55 53 51 51 53 52 52 52 52 52 52 52 53 52 53 51 52
65 63 65 63 62 63 64 67 62 63 69 71 73 71 62 58 58 60 61 63 61 60 59 58 59 58 57 58 59 58 56 55 54 53 50 49 50 50 50 51 51 51 51 50 50 51 51 51 51
64 63 61 61 59 61 63 62 62 64 70 65 70 67 61 61 61 63 64 64 61 59 59 58 58 58 58 57 58 57 56 54 53 53 50 49 48 47 49 49 50 50 50 49 49 50 50 49 50
63 62 61 58 59 59 57 62 57 66 70 66 62 63 63 62 62 62 62 61 60 60 59 59 57 58 57 57 55 56 56 54 53 52 50 48 47 47 47 48 48 48 48 49 49 48 49 49 49
61 58 60 59 59 59 58 56 54 66 68 66 61 63 62 63 64 62 63 61 61 60 59 58 57 57 56 55 55 55 54 54 52 51 50 48 47 46 45 46 46 46 47 47 48 47 48 48 49
59 59 57 60 58 57 56 57 63 70 62 61 63 63 62 62 63 64 64 62 62 61 58 58 58 56 55 55 55 55 53 53 52 51 50 48 46 45 44 45 45 45 46 47 46 45 45 44 45
56 56 58 57 59 56 55 58 59 60 62 61 64 64 63 62 63 64 64 63 62 61 59 57 56 55 54 54 54 53 51 52 52 51 49 46 45 44 43 44 44 44 44 45 44 43 42 41 43
57 54 57 57 56 54 54 53 63 63 59 60 64 66 64 62 62 63 63 63 62 61 60 58 56 56 54 54 53 53 52 52 51 49 47 45 44 43 42 43 43 43 42 42 42 40 41 41 41
59 57 57 58 53 51 54 56 61 67 66 59 62 64 65 63 65 64 62 62 60 60 58 57 55 55 53 52 52 52 52 52 51 49 46 44 43 41 41 41 41 41 40 40 41 40 36 38 40
56 55 55 55 50 48 54 55 62 65 65 67 64 64 65 65 63 62 61 60 58 57 57 56 55 55 53 54 53 53 52 51 49 48 46 44 41 40 40 39 39 40 39 39 39 38 34 35 37
53 52 54 50 50 50 48 53 60 66 67 67 69 67 67 66 63 62 59 58 57 56 55 55 55 55 54 53 50 49 49 48 48 48 46 43 41 40 39 39 38 39 39 38 38 37 33 29 35
49 54 50 47 48 45 51 40 59 66 66 62 62 64 65 65 66 63 60 57 56 56 56 55 55 53 52 50 49 48 50 49 47 45 44 43 41 39 39 38 38 38 39 37 37 38 32 32 29
49 51 50 47 47 45 47 43 57 62 59 64 65 64 64 64 65 62 60 57 57 56 55 54 53 51 50 49 49 47 46 45 45 45 42 41 41 40 39 38 38 38 38 37 37 35 32 34 32
50 49 48 48 46 35 48 46 51 60 61 62 62 59 60 62 63 62 62 59 57 56 54 53 50 49 48 47 46 46 45 43 43 42 41 40 40 39 38 37 37 38 37 37 37 37 35 36 35
47 47 32 32 31 35 41 39 50 62 65 63 63 61 59 59 59 58 57 56 55 53 51 50 48 46 45 45 44 44 43 42 40 39 39 37 38 37 35 36 36 36 37 37 37 37 36 36 36
45 46 39 32 34 41 36 34 53 62 64 65 63 61 63 58 57 56 56 55 53 51 49 48 45 44 43 43 42 42 41 41 39 37 37 36 35 35 35 35 36 36 36 36 37 36 37 36 36
43 38 47 31 25 33 46 52 59 62 61 62 62 61 58 58 56 55 55 54 52 50 48 47 44 44 43 42 41 40 40 38 37 36 36 35 35 33 34 35 35 36 36 36 36 35 35 35 36
44 48 37 36 31 31 38 41 49 54 59 60 58 58 61 58 53 53 53 52 52 50 49 47 45 43 42 41 40 39 38 37 36 35 33 33 33 33 33 33 34 35 35 35 36 35 35 34 35
37 36 37 41 40 34 37 45 62 60 60 61 62 61 62 59 53 52 52 51 50 49 48 46 45 43 41 40 38 37 35 35 34 33 32 31 32 32 32 32 33 33 33 34 35 34 34 33 33
46 44 41 36 34 37 33 42 55 59 57 58 59 58 60 58 57 53 50 49 47 46 46 44 44 42 39 39 37 35 34 33 32 31 30 30 29 30 31 32 32 32 32 34 34 33 32 32 31
MSLP
1011.16 1010.42 1009.94 1009.33 1008.86 1008.29 1008.19 1009.83 1010.57 1012.09 1013.19 1014.00 1014.40 1014.59 1015.11 1016.32 1016.95 1019.30 1021.48 1021.94 1022.26 1022.49 1022.69 1022.58 1023.11 1023.11 1023.04 1022.85 1022.68 1022.48 1022.19 1021.84 1021.46 1021.06 1020.74 1020.46 1020.14 1019.78 1019.41 1019.06 1018.63 1018.23 1017.80 1017.23 1016.75 1016.29 1015.94 1015.49 1015.07
1010.40 1010.22 1009.52 1008.61 1008.29 1007.65 1007.93 1009.91 1011.48 1012.52 1013.78 1015.02 1015.66 1016.05 1016.23 1017.10 1018.81 1020.28 1021.29 1022.19 1022.29 1022.61 1022.77 1022.95 1023.44 1023.44 1023.28 1023.15 1022.96 1022.78 1022.50 1022.13 1021.71 1021.29 1020.93 1020.61 1020.35 1020.01 1019.70 1019.36 1018.97 1018.61 1018.12 1017.60 1017.12 1016.72 1016.29 1015.86 1015.26
1010.84 1010.15 1008.91 1008.42 1008.13 1007.99 1008.54 1010.48 1011.57 1013.49 1014.91 1015.29 1015.96 1016.91 1017.25 1018.09 1019.44 1020.23 1021.47 1022.23 1022.47 1022.70 1022.97 1023.48 1023.66 1023.63 1023.53 1023.42 1023.25 1023.08 1022.78 1022.29 1021.83 1021.46 1021.23 1021.00 1020.75 1020.44 1020.14 1019.70 1019.19 1018.69 1018.24 1017.85 1017.35 1016.99 1016.50 1015.94 1015.44
1010.21 1009.60 1009.45 1008.80 1008.09 1009.21 1010.10 1011.07 1012.22 1014.25 1015.47 1015.72 1016.06 1016.80 1018.55 1019.49 1019.74 1020.53 1021.72 1022.18 1022.40 1022.82 1023.14 1023.87 1023.98 1023.96 1023.89 1023.72 1023.58 1023.39 1023.02 1022.59 1022.33 1022.11 1021.84 1021.53 1021.25 1021.04 1020.81 1020.36 1019.90 1019.39 1018.79 1018.15 1017.68 1017.12 1016.78 1016.05 1015.44
1010.11 1008.92 1008.29 1008.45 1008.86 1010.23 1011.42 1011.78 1013.03 1013.90 1014.74 1015.59 1016.43 1016.75 1018.19 1020.12 1020.67 1021.29 1021.78 1022.17 1022.43 1022.92 1023.36 1023.92 1024.47 1024.40 1024.32 1024.14 1023.89 1023.65 1023.39 1023.12 1022.88 1022.62 1022.37 1022.19 1021.98 1021.57 1021.04 1020.68 1020.14 1019.61 1019.13 1018.42 1017.88 1017.59 1016.93 1016.17 1015.63
1009.26 1008.71 1008.13 1007.95 1008.88 1010.81 1011.90 1012.41 1013.26 1013.73 1014.49 1015.41 1016.52 1017.04 1018.16 1019.89 1020.88 1021.35 1021.81 1022.20 1022.59 1023.14 1023.75 1024.04 1024.79 1024.79 1024.63 1024.45 1024.28 1024.11 1023.84 1023.57 1023.37 1023.14 1022.90 1022.60 1022.28 1021.84 1021.37 1020.88 1020.33 1019.74 1019.19 1018.54 1018.08 1017.54 1016.99 1016.19 1015.43
1008.95 1008.65 1008.02 1008.49 1009.21 1010.88 1011.79 1012.87 1013.24 1013.53 1014.43 1015.27 1015.94 1016.50 1018.16 1019.96 1020.62 1021.50 1021.89 1022.31 1022.83 1023.43 1023.74 1024.02 1024.12 1024.58 1024.73 1024.78 1024.66 1024.45 1024.19 1024.03 1023.84 1023.56 1023.27 1022.96 1022.49 1022.09 1021.54 1021.17 1020.67 1020.08 1019.37 1018.78 1018.04 1017.69 1017.00 1016.05 1015.56
1009.40 1008.95 1008.74 1008.91 1009.40 1010.28 1011.77 1012.97 1013.43 1013.67 1014.27 1015.69 1016.32 1016.20 1017.17 1019.01 1020.56 1021.54 1022.03 1022.47 1023.05 1023.46 1023.66 1023.87 1024.00 1024.03 1024.18 1024.26 1024.81 1024.71 1024.50 1024.31 1024.06 1023.69 1023.45 1022.98 1022.40 1022.11 1021.80 1021.25 1020.77 1020.23 1019.45 1018.82 1018.19 1017.83 1016.86 1015.89 1015.36
1010.24 1009.26 1008.43 1008.85 1009.79 1010.36 1012.20 1013.03 1014.03 1014.37 1014.86 1015.75 1016.33 1016.86 1017.95 1018.91 1020.79 1021.55 1022.10 1022.57 1023.02 1023.34 1023.59 1023.73 1023.83 1023.99 1024.09 1024.21 1024.30 1024.27 1024.22 1024.11 1023.90 1023.62 1023.44 1022.95 1022.59 1022.21 1021.74 1021.24 1020.89 1020.24 1019.63 1019.12 1018.16 1017.65 1016.65 1016.12 1015.58
1010.01 1009.37 1008.73 1009.72 1010.21 1010.97 1012.17 1012.77 1013.85 1014.74 1014.94 1015.48 1016.19 1017.49 1018.58 1019.47 1020.51 1020.91 1021.25 1021.69 1022.42 1022.87 1023.30 1023.43 1023.76 1023.96 1024.04 1023.84 1023.99 1023.91 1023.91 1023.95 1023.86 1023.78 1023.62 1023.18 1022.74 1022.37 1021.91 1021.29 1020.78 1020.21 1019.63 1018.76 1018.20 1017.38 1016.63 1016.02 1015.16
1010.22 1009.80 1010.13 1010.91 1011.49 1012.00 1012.40 1012.98 1013.65 1014.14 1013.82 1014.02 1014.92 1016.72 1018.31 1019.29 1020.00 1020.29 1020.53 1020.82 1021.51 1022.19 1022.77 1023.36 1023.75 1023.96 1023.97 1023.92 1023.92 1023.92 1023.91 1023.97 1023.91 1023.91 1023.89 1023.44 1022.91 1022.51 1021.97 1021.33 1020.77 1020.16 1019.52 1018.90 1018.17 1017.37 1016.62 1015.91 1015.16
1010.93 1011.31 1011.55 1012.08 1012.84 1012.92 1012.85 1013.13 1013.31 1013.48 1012.83 1013.52 1014.05 1015.19 1017.65 1018.50 1019.10 1019.51 1019.97 1020.30 1021.06 1021.71 1022.48 1023.27 1023.51 1023.79 1023.97 1023.93 1023.82 1023.89 1023.97 1024.07 1023.95 1023.95 1024.06 1023.74 1023.22 1022.75 1022.26 1021.61 1021.04 1020.43 1019.83 1019.09 1018.25 1017.44 1016.76 1016.00 1014.95
1011.31 1011.82 1012.59 1013.28 1013.76 1013.73 1013.71 1013.49 1013.61 1013.04 1013.31 1014.31 1014.42 1015.32 1016.65 1017.64 1018.36 1018.98 1019.46 1019.95 1020.73 1021.44 1022.31 1022.94 1023.40 1023.54 1023.83 1023.90 1023.79 1023.84 1023.91 1024.04 1024.15 1024.07 1024.16 1024.04 1023.71 1023.23 1022.63 1022.03 1021.40 1020.76 1020.24 1019.42 1018.65 1017.72 1016.82 1015.85 1014.74
1012.13 1012.47 1012.94 1013.80 1014.06 1014.29 1014.23 1013.66 1014.16 1012.33 1012.92 1013.92 1014.97 1015.35 1016.10 1016.87 1017.50 1018.30 1018.78 1019.47 1020.61 1021.29 1022.07 1022.74 1023.23 1023.44 1023.68 1023.72 1023.98 1024.00 1024.06 1024.13 1024.12 1024.19 1024.32 1024.23 1024.03 1023.59 1022.94 1022.33 1021.67 1021.07 1020.71 1019.89 1018.94 1018.09 1017.07 1016.01 1014.97
1012.79 1012.64 1013.13 1013.52 1014.05 1014.13 1014.55 1013.66 1012.55 1012.32 1012.55 1013.26 1014.50 1014.97 1015.65 1016.28 1016.90 1017.36 1018.35 1019.28 1020.30 1021.00 1021.77 1022.25 1022.68 1023.00 1023.25 1023.44 1023.67 1023.87 1024.12 1024.17 1024.18 1024.26 1024.24 1024.30 1024.14 1023.81 1023.37 1022.56 1021.99 1021.55 1021.08 1020.04 1019.09 1018.20 1017.16 1016.09 1015.16
1012.51 1012.55 1012.13 1012.74 1013.73 1014.42 1014.52 1011.87 1011.44 1011.34 1012.62 1013.01 1013.55 1014.11 1014.73 1015.38 1016.00 1016.77 1017.61 1018.53 1019.39 1020.24 1021.06 1021.93 1022.43 1022.87 1023.20 1023.45 1023.77 1023.96 1024.21 1024.20 1024.24 1024.30 1024.27 1024.33 1024.24 1024.03 1023.56 1022.88 1022.35 1022.03 1021.17 1020.19 1019.39 1018.47 1017.40 1016.59 1015.39
1011.96 1011.04 1011.25 1012.31 1013.17 1013.82 1014.03 1011.72 1011.59 1011.97 1012.20 1012.30 1012.49 1013.02 1013.63 1014.58 1015.41 1016.25 1017.29 1018.34 1019.19 1020.18 1021.20 1021.95 1022.50 1022.89 1023.29 1023.58 1023.89 1024.18 1024.51 1024.45 1024.42 1024.31 1024.41 1024.56 1024.39 1024.20 1023.84 1023.13 1022.72 1022.26 1021.42 1020.54 1019.94 1019.25 1018.41 1017.04 1015.65
1010.09 1010.69 1010.89 1011.57 1012.78 1013.50 1012.94 1011.56 1010.95 1011.20 1011.54 1011.21 1011.21 1011.50 1012.37 1013.34 1014.16 1015.54 1016.70 1017.78 1018.81 1019.78 1020.67 1021.44 1022.10 1022.55 1023.11 1023.47 1023.71 1023.90 1024.18 1024.31 1024.34 1024.43 1024.63 1024.71 1024.55 1024.38 1024.04 1023.50 1022.94 1022.39 1021.75 1021.06 1020.53 1019.88 1019.08 1017.69 1016.49
1010.37 1010.56 1010.75 1011.66 1013.04 1013.21 1012.09 1010.96 1009.84 1009.44 1009.22 1009.84 1009.90 1010.27 1010.74 1011.75 1013.57 1014.97 1016.23 1017.34 1018.46 1019.37 1020.14 1020.84 1021.61 1022.15 1022.76 1023.03 1023.21 1023.38 1023.49 1023.80 1024.01 1024.43 1024.74 1024.76 1024.76 1024.67 1024.28 1023.81 1023.16 1022.66 1022.24 1021.65 1020.99 1020.33 1019.62 1018.11 1017.26
1011.17 1011.08 1011.14 1012.08 1013.45 1013.60 1011.73 1009.98 1008.68 1007.96 1007.37 1007.57 1008.30 1009.07 1009.73 1011.04 1012.60 1014.01 1015.49 1016.80 1017.89 1018.75 1019.64 1020.47 1021.15 1021.82 1022.42 1022.55 1022.78 1023.14 1023.45 1023.81 1024.25 1024.59 1024.59 1024.95 1025.07 1024.91 1024.50 1024.09 1023.59 1023.11 1022.65 1022.01 1021.48 1020.84 1020.34 1019.55 1018.57
1011.76 1011.81 1011.98 1012.95 1013.43 1013.26 1012.28 1009.05 1007.07 1006.07 1006.16 1006.41 1006.77 1007.75 1008.81 1009.74 1011.37 1012.99 1014.57 1016.00 1017.25 1018.16 1019.12 1020.06 1020.85 1021.63 1022.25 1022.66 1023.14 1023.53 1023.86 1024.04 1024.10 1024.20 1024.46 1024.91 1025.15 1025.05 1024.81 1024.45 1024.01 1023.51 1022.99 1022.39 1021.81 1021.34 1021.23 1020.46 1019.43
1012.42 1012.64 1013.05 1013.42 1013.51 1012.90 1012.33 1008.95 1006.61 1005.40 1005.10 1005.75 1006.39 1006.94 1007.67 1008.62 1009.85 1011.76 1013.46 1015.10 1016.37 1017.43 1018.47 1019.51 1020.44 1021.33 1022.13 1022.71 1022.98 1023.13 1023.17 1023.36 1024.11 1024.53 1024.73 1024.94 1025.14 1025.09 1024.93 1024.58 1024.17 1023.76 1023.19 1022.70 1022.26 1021.88 1021.91 1021.26 1020.20
1013.38 1013.75 1013.67 1013.89 1013.80 1013.39 1012.09 1010.57 1005.99 1005.33 1005.06 1005.13 1005.66 1006.32 1007.14 1008.26 1009.28 1010.64 1012.31 1014.14 1015.56 1016.93 1017.81 1018.88 1019.93 1020.99 1021.84 1022.44 1022.75 1023.07 1023.37 1023.95 1024.38 1024.62 1024.90 1025.03 1025.05 1025.14 1025.04 1024.76 1024.31 1023.92 1023.51 1023.02 1022.68 1022.39 1022.15 1021.30 1020.63
1014.45 1014.37 1014.55 1014.35 1014.09 1013.41 1011.40 1010.43 1006.01 1004.82 1004.69 1005.41 1006.44 1007.19 1007.53 1008.26 1009.27 1010.53 1011.94 1013.81 1015.15 1016.57 1017.60 1018.63 1019.64 1020.63 1021.55 1022.12 1022.70 1023.11 1023.33 1023.90 1024.19 1024.56 1024.78 1025.04 1025.11 1025.12 1025.17 1024.84 1024.44 1024.21 1023.88 1023.46 1022.98 1022.40 1021.99 1021.27 1020.59
1014.96 1014.54 1015.08 1015.01 1014.56 1012.82 1012.14 1010.89 1006.49 1004.81 1004.61 1005.14 1005.94 1007.10 1008.05 1008.86 1009.67 1010.72 1011.70 1012.95 1014.43 1015.66 1017.05 1018.16 1019.22 1020.23 1021.28 1022.00 1022.62 1023.16 1023.70 1024.15 1024.51 1024.78 1025.07 1025.25 1025.33 1025.44 1025.40 1025.09 1024.67 1024.48 1024.17 1023.77 1023.10 1022.45 1021.92 1021.52 1020.79
1014.67 1014.61 1014.37 1014.16 1014.05 1012.65 1012.45 1009.44 1005.67 1004.81 1004.80 1005.22 1006.01 1006.96 1007.74 1009.06 1009.91 1010.76 1011.90 1013.00 1014.15 1015.45 1016.70 1017.74 1018.80 1019.84 1021.00 1021.78 1022.53 1023.18 1023.85 1024.34 1024.72 1025.05 1025.39 1025.62 1025.71 1025.78 1025.81 1025.43 1024.93 1024.78 1024.43 1024.03 1023.35 1022.63 1022.14 1021.84 1021.29
1015.19 1015.17 1014.65 1014.54 1015.31 1013.34 1010.14 1007.62 1005.53 1004.33 1004.65 1005.00 1005.56 1006.63 1007.85 1008.76 1009.85 1010.72 1011.71 1012.79 1013.87 1015.02 1016.18 1017.30 1018.43 1019.39 1020.52 1021.43 1022.31 1023.18 1023.86 1024.46 1024.96 1025.32 1025.73 1025.87 1026.03 1026.30 1025.91 1025.59 1025.25 1024.89 1024.53 1024.24 1023.49 1023.05 1022.48 1022.21 1021.67
1015.30 1014.74 1015.01 1014.85 1014.06 1012.00 1009.26 1007.87 1005.55 1004.73 1004.78 1005.09 1005.51 1006.43 1007.28 1008.62 1010.03 1010.95 1011.82 1012.75 1013.73 1014.81 1016.02 1017.19 1018.28 1019.06 1020.27 1021.29 1022.21 1022.89 1023.68 1024.43 1025.12 1025.45 1025.85 1026.03 1026.23 1026.21 1026.00 1025.74 1025.36 1025.01 1024.58 1024.44 1023.83 1023.41 1022.99 1022.52 1022.06
1015.56 1015.01 1014.73 1014.20 1013.14 1011.42 1009.19 1006.54 1004.72 1004.59 1004.71 1005.10 1005.68 1006.26 1007.01 1008.11 1009.59 1010.86 1011.99 1012.97 1013.84 1014.92 1015.99 1016.90 1017.93 1019.07 1020.16 1021.26 1022.42 1023.02 1023.73 1024.38 1025.09 1025.51 1026.06 1026.20 1026.34 1026.45 1026.28 1026.02 1025.53 1025.15 1024.85 1024.64 1024.12 1023.72 1023.25 1022.86 1022.34
1014.21 1013.95 1013.76 1013.57 1012.88 1011.74 1010.25 1006.34 1005.07 1005.27 1005.60 1005.80 1006.25 1006.76 1007.40 1008.39 1009.49 1010.52 1011.72 1012.73 1013.64 1014.48 1015.40 1016.49 1017.68 1018.70 1019.89 1020.98 1022.29 1023.42 1023.97 1024.49 1025.06 1025.73 1026.19 1026.38 1026.46 1026.52 1026.54 1026.13 1025.70 1025.48 1025.28 1024.79 1024.36 1023.85 1023.52 1023.21 1022.77
Wind_Speed
9 7 4 5 7 5 3 6 3 9 7 5 4 2 3 8 6 4 7 6 6 5 3 6 7 9 10 11 11 12 13 14 16 18 19 19 20 21 22 22 23 23 24 25 25 26 25 25 25
3 4 5 3 7 8 4 8 9 11 8 7 6 2 3 5 5 10 9 6 5 5 4 9 7 8 9 10 11 12 14 15 17 18 19 20 21 22 22 22 23 23 24 24 25 26 25 25 25
6 6 6 4 5 6 3 8 10 9 9 8 6 2 2 6 6 12 10 8 5 6 4 8 6 7 9 10 11 13 14 16 17 19 20 21 21 22 23 23 24 25 26 26 26 26 26 26 26
5 5 3 8 7 2 3 8 11 13 5 4 1 5 3 5 9 7 10 8 6 6 5 7 7 7 8 10 11 12 13 15 16 17 18 19 19 20 20 21 21 22 23 23 25 26 27 26 27
5 4 7 6 4 0 2 8 13 14 10 10 7 5 2 6 7 11 10 7 7 6 5 7 6 7 9 10 10 11 12 14 15 16 17 17 17 18 19 19 20 21 22 22 23 23 24 24 25
6 5 7 9 5 3 4 10 12 12 9 9 7 4 4 11 11 10 9 7 6 7 4 4 6 6 7 7 9 10 12 13 14 15 15 15 15 17 17 19 21 22 23 23 23 25 26 26 26
12 7 8 6 4 4 8 11 14 13 10 11 2 7 6 13 12 10 9 7 6 5 5 4 2 5 3 5 7 9 11 12 13 15 16 15 15 17 18 18 20 22 24 25 25 26 26 27 27
6 5 4 5 5 3 11 15 10 13 11 4 6 7 5 16 15 11 9 8 7 6 5 4 4 4 1 1 5 7 9 11 12 13 15 15 14 16 17 18 21 22 23 25 23 25 26 28 29
2 7 8 5 5 3 12 15 8 2 5 8 9 3 6 20 16 12 10 9 8 6 6 5 5 3 2 0 2 2 5 6 10 12 15 12 9 12 15 17 20 22 22 23 23 24 25 25 24
8 9 8 3 1 4 13 16 13 8 14 13 12 6 5 19 17 16 15 13 11 10 8 7 5 3 2 1 3 4 4 5 6 8 11 8 10 10 13 14 19 20 21 22 23 23 23 20 12
4 10 3 3 0 3 11 14 14 11 14 18 16 15 14 16 17 16 16 14 13 11 9 7 5 4 3 1 3 2 3 3 4 8 10 10 8 9 8 7 8 10 15 10 14 14 11 16 12
8 2 2 3 2 3 8 6 8 17 11 1 13 16 18 20 19 18 16 14 13 12 10 8 6 5 3 1 1 2 3 3 4 6 9 8 6 8 9 7 10 9 9 13 12 9 14 15 16
7 3 2 2 2 4 2 10 12 15 18 5 5 13 20 19 19 17 16 14 14 13 10 9 7 5 4 2 1 1 2 3 4 5 7 7 8 9 9 9 9 10 11 11 11 12 13 14 16
2 3 1 1 3 2 5 8 2 8 14 12 10 16 17 19 20 17 18 16 14 12 11 9 8 6 5 3 1 1 2 3 4 4 6 8 8 9 9 10 10 10 10 11 11 12 12 12 14
3 3 3 6 5 1 4 10 18 15 8 16 15 15 16 18 19 20 17 15 14 12 12 12 10 8 7 5 4 1 1 2 3 4 5 8 9 10 11 9 10 10 11 14 11 13 12 12 12
4 3 5 8 7 4 6 11 4 13 12 15 17 16 17 20 21 19 18 17 16 15 15 12 9 8 7 5 3 2 1 1 2 3 4 8 9 11 10 9 9 11 10 10 10 12 12 12 13
5 7 8 6 9 4 10 9 5 1 10 15 16 17 17 17 20 19 18 17 16 15 13 12 10 9 7 5 3 2 1 1 2 3 5 8 9 10 10 8 9 11 9 10 11 11 13 13 12
8 7 5 9 7 9 10 20 17 10 12 16 17 18 19 19 22 19 19 17 16 15 14 13 10 10 8 5 4 3 3 2 1 3 4 8 7 10 9 9 10 10 10 10 10 14 13 13 13
3 5 9 2 3 5 15 19 20 17 18 18 19 19 20 21 17 19 18 17 17 16 15 15 13 11 8 6 5 4 4 2 1 2 4 7 8 9 9 8 9 10 10 12 13 12 16 12 14
7 9 11 5 3 5 12 20 22 22 20 22 20 21 20 16 18 19 20 19 19 18 17 15 14 12 9 5 3 1 1 1 1 1 3 5 7 8 8 9 9 11 10 12 13 13 11 11 13
8 11 9 4 3 7 12 15 11 10 14 16 18 18 18 18 19 20 21 21 19 19 18 15 14 11 9 6 4 3 2 2 4 1 3 4 6 7 8 10 9 10 9 9 12 12 15 12 11
10 3 2 1 4 5 4 10 8 14 12 9 11 14 16 18 18 20 22 22 22 19 16 16 14 12 9 8 6 5 3 2 2 2 3 4 5 6 8 9 9 10 8 10 11 10 11 12 13
2 4 3 1 3 5 6 6 3 5 7 3 1 4 11 13 16 19 21 20 20 17 15 14 14 13 10 9 6 5 4 2 1 0 3 4 4 6 8 9 9 9 8 10 12 11 11 9 9
11 7 4 1 1 4 0 5 3 3 2 4 3 4 3 10 14 15 17 18 17 16 15 14 15 14 12 10 8 6 5 4 2 2 3 3 3 4 8 8 8 9 10 11 10 11 11 10 9
3 6 2 2 3 5 3 5 12 11 9 6 4 3 6 8 11 14 16 17 17 19 17 15 16 14 13 11 9 7 5 4 3 2 3 4 4 4 7 8 9 9 10 11 11 10 11 11 11
13 3 4 5 4 1 2 8 5 3 2 1 2 1 4 8 9 12 14 15 16 17 18 16 16 14 13 12 10 8 7 4 3 3 2 3 3 4 7 7 8 10 11 11 11 8 8 11 10
8 7 2 5 2 3 6 8 13 12 12 10 11 8 6 8 10 13 15 15 16 18 18 17 16 14 14 13 10 9 7 6 5 5 3 2 3 4 6 6 8 9 10 11 11 8 9 10 10
3 4 5 1 5 8 5 5 10 2 4 2 2 10 8 8 9 11 13 15 14 15 15 16 15 14 13 12 10 9 9 7 6 5 3 3 3 4 5 6 7 9 10 11 11 9 9 11 8
6 4 3 2 4 4 4 5 6 4 2 3 2 4 6 10 10 10 11 12 13 13 14 15 15 14 13 12 9 10 9 8 6 5 4 3 3 4 5 5 7 8 10 11 10 11 11 12 11
7 9 10 6 7 4 2 8 5 3 2 1 3 3 3 3 10 11 12 13 12 13 14 15 15 14 13 12 11 10 10 9 8 6 4 3 4 3 4 4 6 8 10 10 11 11 11 11 12
Wind_Direction
264 219 223 238 241 238 212 180 112 156 156 89 23 286 13 35 353 26 120 112 125 102 82 87 27 32 28 25 24 21 21 22 25 27 25 21 17 14 11 10 6 1 357 354 352 348 345 343 339
262 217 227 261 255 233 170 136 186 164 85 135 131 141 193 84 74 118 147 127 117 99 74 65 43 36 31 26 24 21 21 22 24 24 22 19 16 13 9 7 4 358 355 353 350 345 341 338 336
252 239 249 253 262 266 13 169 163 111 144 165 136 315 53 106 122 139 100 126 136 116 87 80 51 42 34 28 25 22 22 23 23 21 19 17 14 10 6 3 360 357 354 350 348 343 340 338 334
227 191 199 248 259 72 322 180 134 148 160 200 161 166 119 27 141 129 137 132 138 115 95 85 50 42 35 31 27 23 23 24 23 21 18 15 11 8 4 1 357 353 350 348 345 343 336 333 331
221 252 245 247 248 23 205 156 162 170 158 173 188 136 147 156 114 135 143 147 137 132 112 96 48 41 35 29 25 22 22 24 21 19 16 13 7 3 2 356 354 350 348 349 345 338 333 331 329
205 284 239 237 183 174 196 167 172 183 163 148 190 162 138 135 161 153 147 144 132 122 130 129 98 45 38 27 23 20 22 22 19 17 12 6 2 358 355 354 352 348 348 347 343 340 337 333 330
244 230 274 297 271 210 191 178 190 188 182 180 295 203 102 166 164 156 158 146 131 134 153 144 132 115 138 42 22 19 20 18 15 11 6 360 354 354 353 350 347 346 347 346 345 339 335 333 328
268 260 253 232 215 232 158 174 202 200 199 59 168 212 195 175 157 160 156 157 153 165 166 142 169 197 152 58 47 9 14 14 9 4 3 354 347 351 349 348 347 342 344 345 340 335 335 336 329
262 245 247 245 217 129 154 183 207 36 177 196 192 279 60 145 155 161 165 169 176 176 171 178 193 184 213 10 67 308 21 7 7 3 2 353 348 347 343 343 341 340 341 339 339 333 335 330 322
225 235 257 27 210 172 178 200 173 188 208 206 204 175 179 150 170 176 180 184 189 177 183 191 186 182 210 286 353 347 7 6 5 5 358 352 344 347 341 339 339 339 337 337 336 335 333 331 322
194 246 89 134 201 262 183 204 176 217 212 221 213 187 174 171 184 190 193 191 187 182 187 186 178 185 219 79 338 8 6 359 355 7 2 348 345 346 342 336 339 338 337 335 335 332 333 330 326
228 245 292 78 131 210 192 214 216 221 215 261 219 181 180 187 191 195 196 193 183 186 186 176 187 191 187 256 346 8 13 352 3 360 7 352 344 345 341 339 338 334 336 333 334 330 329 324 323
239 187 210 66 152 243 301 227 220 234 233 117 193 166 188 194 197 197 197 192 190 190 177 181 185 188 187 224 220 23 3 17 355 1 10 356 345 342 335 335 332 336 338 334 332 331 327 326 324
33 211 162 137 172 198 228 225 249 240 223 192 195 191 197 199 198 195 199 194 195 188 180 173 187 191 188 205 197 8 16 358 360 2 3 358 345 340 335 333 335 339 335 333 330 331 328 326 324
118 251 210 198 187 196 239 241 235 241 211 203 210 207 206 204 202 203 199 196 193 191 180 185 184 187 190 190 190 179 48 336 355 355 355 360 348 340 335 333 335 342 328 332 332 327 327 324 323
233 240 245 125 175 135 212 266 78 197 189 215 214 216 211 210 208 204 197 198 189 188 188 185 185 188 189 199 193 181 139 327 3 356 354 359 346 344 337 333 338 341 328 332 339 334 331 329 327
204 261 215 179 205 136 216 278 96 141 213 232 226 220 217 215 211 205 202 197 189 191 186 187 190 191 191 189 198 198 226 315 9 360 3 353 349 349 339 334 339 338 331 338 342 336 337 327 330
237 232 220 258 168 220 228 255 267 213 221 232 234 223 220 217 211 202 201 190 188 189 189 189 190 190 187 187 197 207 210 224 340 9 13 351 353 350 338 338 341 341 334 342 343 339 336 328 339
285 271 269 107 105 251 247 261 268 264 233 232 234 230 220 219 209 198 199 188 189 191 191 192 191 189 187 195 199 214 236 219 236 9 8 2 354 350 343 343 341 348 342 342 345 341 337 337 340
250 260 266 112 138 243 284 278 270 258 252 245 231 238 232 217 203 197 195 193 194 193 194 192 196 189 197 199 191 249 250 195 348 357 1 14 353 356 346 346 349 350 342 344 348 349 343 333 342
226 245 273 298 288 233 294 269 251 246 247 252 244 235 241 224 207 200 195 196 193 196 194 196 195 188 191 188 159 162 175 221 217 350 358 5 359 357 354 353 355 350 345 345 346 349 352 337 342
225 211 195 253 309 283 352 291 287 280 272 209 234 233 231 226 206 199 195 197 196 197 190 191 192 186 185 180 190 208 253 259 64 342 353 343 6 360 1 358 359 351 343 349 344 355 346 340 340
91 149 141 127 275 308 175 260 278 224 293 276 112 226 217 215 209 198 195 196 195 195 187 186 183 183 178 181 187 185 194 133 142 17 329 353 359 9 9 2 360 352 351 350 344 349 342 334 340
141 119 98 114 287 256 252 239 294 240 218 142 111 82 167 183 193 197 192 189 192 191 184 184 180 181 178 179 177 192 179 168 184 48 357 356 1 4 16 1 3 354 352 350 347 334 332 335 342
215 170 336 263 192 234 117 228 260 274 249 232 231 159 142 170 180 187 188 182 187 186 184 183 181 179 176 176 172 168 164 153 125 66 27 359 360 2 7 360 4 355 351 347 342 340 337 340 334
190 203 208 248 213 79 135 236 241 265 288 294 212 273 241 177 178 182 188 184 186 185 184 183 180 174 174 174 168 160 155 147 121 89 53 31 11 0 358 359 3 354 351 350 345 344 344 343 339
167 203 56 85 110 262 233 263 274 248 251 258 260 226 198 189 183 185 182 186 186 185 189 184 180 175 174 173 159 158 155 148 131 108 78 43 20 1 347 2 6 357 351 350 347 349 349 347 344
279 135 133 187 232 245 182 260 258 168 162 106 174 200 184 168 176 185 186 189 189 187 187 183 183 175 170 163 161 156 151 140 127 114 100 72 26 4 359 9 12 358 353 353 352 351 350 345 348
165 189 210 273 222 251 277 219 253 253 253 212 143 162 216 183 181 183 186 188 187 186 187 183 182 172 168 162 156 152 148 140 133 122 114 86 50 12 5 11 13 2 357 353 352 355 355 349 345
239 216 184 207 187 229 308 237 171 213 223 351 288 254 205 185 181 181 183 185 188 188 185 184 179 172 166 159 153 154 147 144 139 130 119 95 64 23 1 6 17 10 358 351 350 356 356 351 347